Astoria, OR

10:24 PM PDT on September 19, 2017 (GMT -0700)
Astoria Regional

Weather History for KAST - March, 2012

Change the Weather History Date:

Saturday, March 31, 2012

  Actual Average Record
Temperature  
Mean Temperature 47 °F 47 °F  
Max Temperature 52 °F 55 °F 72 °F (1987)
Min Temperature 41 °F 40 °F 29 °F (1936)
Degree Days  
Heating Degree Days 18 18  
Month to date heating degree days 656 580  
Since 1 July heating degree days 4134 3920  
Cooling Degree Days 0 0  
Month to date cooling degree days 0 0  
Year to date cooling degree days 0 0  
Moisture  
Dew Point 41 °F    
Average Humidity 76    
Maximum Humidity 89    
Minimum Humidity 63    
Precipitation  
Precipitation 0.84 in 0.22 in 3.23 in (1931)
Month to date precipitation 14.04 7.45  
Year to date precipitation 31.64 24.84  
Snow  
Snow 0.00 in - - ()
Month to date snowfall 0.0  
Snow Depth 0.00 in    
Sea Level Pressure  
Sea Level Pressure 29.43 in    
Wind  
Wind Speed 11 mph (South)    
Max Wind Speed 22 mph    
Max Gust Speed 29 mph    
Visibility 8 miles    
Events Rain    
T = Trace of Precipitation, MM = Missing Value Source: NWS Daily Summary

Daily Weather History Graph

Daily Weather History Graph

Search for Another Location

Airport or City:

Trip Planner

Search our weather history database for the weather conditions in past years. The results will help you decide how hot, cold, wet, or windy it might be!

Date:

Astronomy

Mar. 31, 2012 Rise Set
Actual Time 6:56 AM PDT 7:43 PM PDT
Civil Twilight 6:25 AM PDT 8:14 PM PDT
Nautical Twilight 5:49 AM PDT 8:50 PM PDT
Astronomical Twilight 5:12 AM PDT 9:28 PM PDT
Moon 12:57 PM PDT (3/31) 3:17 AM PDT (3/31)
Length of Visible Light 13h 48m
Length of Day
12h 47m
First Quarter, 60% of the Moon is Illuminated
Mar 31
First Quarter
Apr 6
Full
Apr 13
Last Quarter
Apr 21
New
Apr 29
First Quarter

Hourly Weather History & Observations

Time (PDT) Temp. Windchill Dew Point Humidity Pressure Visibility Wind Dir Wind Speed Gust Speed Precip Events Conditions
12:55 AM 43.0 °F 36.8 °F 37.9 °F 82% 29.57 in 9.0 mi East 11.5 mph 23.0 mph 0.01 in Rain Light Rain
1:29 AM 42.8 °F 37.0 °F 37.4 °F 81% 29.54 in 7.0 mi East 10.4 mph - 0.02 in Rain Light Rain
1:55 AM 42.1 °F 34.5 °F 39.0 °F 89% 29.53 in 8.0 mi East 15.0 mph 19.6 mph 0.04 in Rain Light Rain
2:55 AM 42.1 °F 33.9 °F 39.0 °F 89% 29.46 in 6.0 mi ENE 17.3 mph - 0.08 in Rain Rain
3:21 AM 41.0 °F 31.4 °F 37.4 °F 87% 29.42 in 5.0 mi East 21.9 mph 27.6 mph 0.06 in Rain Rain
3:55 AM 41.0 °F 32.8 °F 37.9 °F 89% 29.39 in 5.0 mi East 16.1 mph 24.2 mph 0.13 in Rain Rain
4:55 AM 42.1 °F 33.6 °F 39.0 °F 89% 29.31 in 7.0 mi East 18.4 mph 26.5 mph 0.14 in Rain Rain
5:55 AM 42.1 °F 36.6 °F 41.0 °F 96% 29.29 in 10.0 mi ESE 9.2 mph - 0.03 in   Overcast
6:38 AM 42.8 °F 37.5 °F 42.8 °F 100% 29.31 in 5.0 mi ESE 9.2 mph - 0.04 in Rain Rain
6:55 AM 45.0 °F 39.3 °F 43.0 °F 93% 29.34 in 4.0 mi South 11.5 mph 20.7 mph 0.09 in Rain Rain
7:21 AM 46.4 °F 39.5 °F 42.8 °F 87% 29.35 in 6.0 mi South 17.3 mph 26.5 mph 0.04 in Rain Rain
7:46 AM 46.4 °F 40.1 °F 42.8 °F 87% 29.35 in 5.0 mi South 15.0 mph 20.7 mph 0.06 in Rain Light Rain
7:55 AM 46.0 °F 40.2 °F 43.0 °F 89% 29.36 in 7.0 mi South 12.7 mph 21.9 mph 0.07 in Rain Light Rain
8:04 AM 44.6 °F 38.4 °F 42.8 °F 93% 29.36 in 9.0 mi South 12.7 mph 20.7 mph 0.00 in Rain Light Rain
8:12 AM 44.6 °F 38.1 °F 42.8 °F 93% 29.35 in 10.0 mi South 13.8 mph 23.0 mph 0.00 in Rain Light Rain
8:55 AM 46.0 °F 42.5 °F 42.1 °F 86% 29.35 in 10.0 mi ESE 6.9 mph - 0.00 in   Mostly Cloudy
9:55 AM 46.0 °F 41.4 °F 39.9 °F 79% 29.38 in 10.0 mi SSE 9.2 mph - N/A   Overcast
10:55 AM 45.0 °F 41.8 °F 41.0 °F 86% 29.42 in 7.0 mi SSW 5.8 mph - 0.04 in Rain Light Rain
11:55 AM 46.9 °F - 42.1 °F 83% 29.42 in 10.0 mi SSE 6.9 mph - 0.00 in   Overcast
12:55 PM 48.0 °F - 43.0 °F 83% 29.42 in 10.0 mi SE 4.6 mph - 0.01 in   Overcast
1:55 PM 51.1 °F - 41.0 °F 68% 29.42 in 10.0 mi SSW 10.4 mph 18.4 mph 0.00 in   Overcast
2:55 PM 51.1 °F - 39.9 °F 66% 29.41 in 10.0 mi SSE 9.2 mph 16.1 mph N/A   Overcast
3:55 PM 51.1 °F - 41.0 °F 68% 29.40 in 10.0 mi Calm Calm - 0.01 in   Overcast
4:44 PM 48.2 °F - 41.0 °F 76% 29.40 in 2.5 mi WSW 4.6 mph - 0.04 in Rain Rain
4:51 PM 48.2 °F - 42.8 °F 82% 29.40 in 7.0 mi SSW 3.5 mph - 0.04 in Rain Light Rain
4:55 PM 48.9 °F - 42.1 °F 77% 29.41 in 10.0 mi Variable 3.5 mph - 0.04 in Rain Light Rain
5:55 PM 48.0 °F - 44.1 °F 86% 29.41 in 9.0 mi SSE 5.8 mph - 0.00 in Rain Light Rain
6:11 PM 46.4 °F 41.9 °F 44.6 °F 93% 29.43 in 2.5 mi SW 9.2 mph - 0.06 in Rain Rain
6:28 PM 46.4 °F 41.1 °F 42.8 °F 87% 29.43 in 9.0 mi South 11.5 mph - 0.11 in Rain Light Rain
6:55 PM 46.0 °F 43.9 °F 43.0 °F 89% 29.43 in 4.0 mi South 4.6 mph - 0.14 in Rain Rain
7:55 PM 46.0 °F 43.9 °F 43.0 °F 89% 29.43 in 10.0 mi South 4.6 mph - 0.05 in Rain Light Rain
8:55 PM 46.0 °F 40.2 °F 41.0 °F 83% 29.44 in 10.0 mi SSW 12.7 mph 18.4 mph 0.00 in   Overcast
9:03 PM 44.6 °F 38.4 °F 41.0 °F 87% 29.45 in 10.0 mi SSW 12.7 mph - N/A   Overcast
9:16 PM 44.6 °F 37.8 °F 39.2 °F 81% 29.45 in 10.0 mi SSW 15.0 mph 23.0 mph N/A   Overcast
9:46 PM 44.6 °F 39.7 °F 41.0 °F 87% 29.47 in 4.0 mi SW 9.2 mph 20.7 mph 0.00 in Rain Light Rain
9:53 PM 42.8 °F 34.5 °F 39.2 °F 87% 29.48 in 5.0 mi NW 18.4 mph 35.7 mph 0.01 in Rain Light Rain
9:55 PM 42.1 °F 33.1 °F 39.9 °F 92% 29.49 in 6.0 mi WNW 20.7 mph 35.7 mph 0.01 in Rain Light Rain
10:05 PM 42.8 °F 34.3 °F 39.2 °F 87% 29.50 in 9.0 mi WNW 19.6 mph 24.2 mph 0.00 in Rain Light Rain
10:55 PM 41.0 °F 33.9 °F 37.9 °F 89% 29.56 in 6.0 mi WNW 12.7 mph 23.0 mph 0.03 in Rain Light Rain
11:20 PM 42.8 °F 35.8 °F 37.4 °F 81% 29.58 in 10.0 mi West 13.8 mph 25.3 mph 0.01 in Rain Light Rain
11:55 PM 43.0 °F 34.2 °F 37.0 °F 80% 29.62 in 10.0 mi West 20.7 mph 26.5 mph 0.01 in   Overcast